Zurück zum Katalog

MERIDIAN 3

AktivMilitärHEO
NORAD 37212·PAYLOAD·🇷🇺 Russia

Gestartet Nov 2, 2010 von Plesetsk Cosmodrome

Loading…

Nächste Überflüge (nächste 24 Stunden)

TLE

AktuellSource: Space-Track

Epoche: Sep 12, 2026, 01:51 UTC

1 37212U 10058A   26255.07762234  .00000165  00000-0  00000-0 0  9992
2 37212  63.4523  81.9938 6885387 260.9242  21.8485  2.00601184116208

Verfolge MERIDIAN 3 in Echtzeit mit AllMySat

Download on the App Store